Regional Weather Roundup
Issued by NWS

Home | Current Version | Previous Version | Text Only | Print | Product List | Glossary Off
Versions: 1 2 3 4 5 6 7 8 9 10 11 12 13 14 15 16 17 18 19 20 21 22 23 24 25 26 27 28 29 30 31 32 33 34 35 36 37 38 39 40 41 42 43 44 45 46 47 48 49 50

000
ASUS43 KLOT 301410
RWRIL

ILLINOIS REGIONAL WEATHER ROUNDUP
NATIONAL WEATHER SERVICE CHICAGO/ROMEOVILLE IL
800 AM CST FRI JAN 30 2015

NOTE: "FAIR" INDICATES FEW OR NO CLOUDS BELOW 12,000 FEET WITH NO
SIGNIFICANT WEATHER AND/OR OBSTRUCTIONS TO VISIBILITY.

* THESE STATIONS ARE NOT UNDER NWS QUALITY CONTROL. THEY ALSO MAY NOT
  REPORT WEATHER SUCH AS PRECIPITATION OR FOG.

ILZ001-002-007-009-015-016-024-301500-
NORTHWEST ILLINOIS

CITY           SKY/WX    TMP DP  RH WIND       PRES   REMARKS
MOLINE         CLEAR     20  11  68 N3        30.54R
STERLING*      CLEAR     19   9  63 NE3       30.52S
SAVANNA*       CLEAR     19  10  70 CALM      30.53S
$$

ILZ003-004-008-010-011-017-018-301500-
NORTH CENTRAL ILLINOIS

CITY           SKY/WX    TMP DP  RH WIND       PRES   REMARKS
ROCKFORD       PTCLDY    19   8  62 N7        30.53S WCI  10
FREEPORT*      CLEAR     15   8  74 CALM      30.52S
ROCHELLE*      CLEAR     17  11  76 N7        30.51S WCI   8
DE KALB*       CLEAR     16  10  76 N7        30.50S WCI   7
PERU*          CLEAR     20  13  76 N6        30.53R WCI  12
$$

ILZ005-006-012>014-019>023-301500-
NORTHEAST ILLINOIS

CITY           SKY/WX    TMP DP  RH WIND       PRES   REMARKS
CHICAGO-OHARE  PTCLDY    20   8  60 NW10      30.51R WCI   9
CHICAGO-MIDWAY PTCLDY    24  10  55 NW10      30.51R WCI  14
AURORA         CLEAR     20  12  71 N12       30.51R WCI   8
LANSING*       CLOUDY    24   9  54 NW12      30.49R WCI  12
JOLIET*        CLEAR     22  10  59 N7        30.51S WCI  14
WAUKEGAN       CLEAR     18   8  65 NW6       30.49R WCI  10
DUPAGE AIRPORT CLEAR     21   9  59 N8        30.50R WCI  11
KANKAKEE*      CLEAR     24  11  57 N9        30.50S WCI  15
WHEELING       CLEAR     20   9  62 NW8       30.53R WCI  10
MORRIS*        CLEAR     21  17  84 N3        30.51R
ROMEOVILLE*    CLEAR     22  10  60 N12       30.51R WCI  11
NORTHERLY ISL    N/A     23  10  57 NW9         N/A  WCI  13
$$

LMZ740>746-301500-
SOUTHERN LAKE MICHIGAN

STATION/POSITION SKY/WX   TEMP    WIND        PRES    VSBY  WAVE
                          AIR SEA DIR/SP/G                  HT/PER
                          (F)     (DEG/KT/KT) (MB)    (MI)  (FT/S)
WAUKEGAN HARBOR            19     310/ 11/ 15   N/A
HARRISON CRIB              22     320/ 17/ 20   N/A
BURNHAM HARBOR             23     310/  7/ 16   N/A
CALUMET HARBOR             23     280/  8/ 14   N/A
MICHIGAN CITY              26     340/ 19/ 22   N/A
$$

ILZ025>027-034>036-040-047-049-050-058-095>099-301500-
WEST-CENTRAL ILLINOIS

CITY           SKY/WX    TMP DP  RH WIND       PRES   REMARKS
QUINCY         CLEAR     22  17  81 NE8       30.53F WCI  12
GALESBURG*     CLEAR     20  15  83 N5        30.53S WCI  13
MACOMB*        CLEAR     22  18  83 NW5       30.57R WCI  16
JACKSONVILLE*  CLEAR     26  19  76 NW5       30.54S WCI  20
PITTSFIELD*    CLEAR     26  19  76 N6        30.55S WCI  19
$$

ILZ028>032-037-038-041>044-048-051>054-059>061-301500-
CENTRAL ILLINOIS

CITY           SKY/WX    TMP DP  RH WIND       PRES   REMARKS
PONTIAC        CLEAR     24  19  83 NW6       30.52R WCI  17
BLOOMINGTON    CLEAR     23  19  85 N10       30.50R WCI  12
DECATUR        CLEAR     26  19  74 NW9       30.51R WCI  17
PEORIA         CLEAR     24  15  68 N5        30.53R WCI  18
LACON*         CLEAR     22  15  74 N5        30.52S WCI  16
LINCOLN*       CLEAR     26  20  80 NW3       30.54S
SPRINGFIELD    CLEAR     25  18  74 NW6       30.54R WCI  18
TAYLORVILLE    CLEAR     27  21  80 NW10      30.53R WCI  17
$$

ILZ033-039-045-046-055>057-062-063-301500-
EAST-CENTRAL ILLINOIS

CITY           SKY/WX    TMP DP  RH WIND       PRES   REMARKS
CHAMPAIGN      CLEAR     25  19  78 N9        30.49R WCI  15
DANVILLE*      CLEAR     25  18  73 N10       30.45S WCI  15
RANTOUL*       CLEAR     27  19  72 N8        30.49R WCI  18
MATTOON        CLEAR     27  19  72 N15       30.49R WCI  15
PARIS*         CLEAR     28  23  82 N6        30.49R WCI  21
$$

ILZ079-100>102-301500-
SOUTHWEST ILLINOIS

CITY           SKY/WX    TMP DP  RH WIND       PRES   REMARKS
ALTON          CLEAR     28  18  64 N6        30.55R WCI  22
BELLEVILLE     PTCLDY    28  20  70 N7        30.54R WCI  21
CAHOKIA*       CLOUDY    30  20  66 N12       30.55R WCI  20
SPARTA*        CLOUDY    29  21  71 N8        30.54R WCI  21
$$

ILZ064>066-069>071-074>076-080>082-084>086-088>090-092>094-301500-
SOUTH-CENTRAL ILLINOIS

CITY           SKY/WX    TMP DP  RH WIND       PRES   REMARKS
CARBONDALE     CLOUDY    31  20  63 N9        30.52R WCI  23
CAIRO*         PTCLDY    36  25  65 N10       30.50S WCI  28
EFFINGHAM*     CLEAR     29  19  66 NW8       30.53R WCI  21
MARION         CLOUDY    32  21  64 N12       30.51S WCI  23
MT. VERNON     PTCLDY    30  18  59 CALM      30.52S
CENTRALIA*     PTCLDY    28  20  71 N7        30.53R WCI  21
SALEM*         PTCLDY    30  22  71 N9        30.53R WCI  21
METROPOLIS*    CLOUDY    34  25  70 N7        30.49S WCI  28
$$

ILZ067-068-072-073-078-083-087-091-301500-
SOUTHEAST ILLINOIS

CITY           SKY/WX    TMP DP  RH WIND       PRES   REMARKS
LAWRENCEVILLE  CLEAR     31  22  69 NW14G21   30.49R WCI  21
FLORA*         PTCLDY    31  21  66 N13       30.52R WCI  21
FAIRFIELD*     PTCLDY    30  21  69 NW3       30.51R
HARRISBURG*    CLOUDY    33  23  67 N8        30.51S WCI  25
ROBINSON*      CLEAR     29  24  79 N8        30.50R WCI  21
CARMI*         CLEAR     33  25  72 NW8       30.50R WCI  26
$$

ABBREVIATIONS USED IN REMARKS
   TC - TEMPERATURE IN CELSIUS
  WCI - WIND CHILL INDEX
   HX - HEAT INDEX
  VSB - VISIBILITY
$$



USA.gov is the U.S. government's official web portal to all federal, state and local government web resources and services.